Tracking 29932 objects as of 4-Dec-2024
HD Live streaming from Space Station
objects crossing your sky now

STARLINK-30994

Track STARLINK-30994 now!
10-day predictions
STARLINK-30994 is classified as:


NORAD ID: 58483
Int'l Code: 2023-186L
Perigee: 493.6 km
Apogee: 496.7 km
Inclination: 43.0 °
Period: 94.4 minutes
Semi major axis: 6866 km
RCS: Unknown
Launch date: December 3, 2023
Source: United States (US)
Launch site: AIR FORCE EASTERN TEST RANGE (AFETR)
Your satellite tracking list
Your tracking list is empty




NASA's NSSDC Master Catalog

Two Line Element Set (TLE):
1 58483U 23186L   24338.31788169 -.00001683  00000-0 -54470-4 0  9995
2 58483  43.0048 342.2751 0002193 278.2000  81.8602 15.25923384 57286
Source of the keplerian elements: AFSPC